Beaufort, NC

1:11 AM EST on November 19, 2019 (GMT -0500)
Smith

Weather History for KMRH - October, 2019

Change the Weather History Date:

Wednesday, October 23, 2019

  Actual Average Record
Temperature  
Mean Temperature 64 °F -  
Max Temperature 73 °F 73 °F 83 °F (1949)
Min Temperature 55 °F 52 °F 37 °F (1974)
Degree Days  
Heating Degree Days 1    
Growing Degree Days 14 (Base 50)    
Moisture  
Dew Point 57 °F    
Average Humidity 77    
Maximum Humidity 97    
Minimum Humidity 49    
Precipitation  
Precipitation 0.00 in - - ()
Sea Level Pressure  
Sea Level Pressure 30.07 in    
Wind  
Wind Speed 8 mph (North)    
Max Wind Speed 15 mph    
Max Gust Speed -    
Visibility 10 miles    
Events      
Averages and records for this station are not official NWS values.
T = Trace of Precipitation, MM = Missing Value Source: NWS Daily Summary

Daily Weather History Graph

Daily Weather History Graph

Search for Another Location

Airport or City:

Astronomy

Oct. 23, 2019 Rise Set
Actual Time 7:18 AM EDT 6:22 PM EDT
Civil Twilight 6:53 AM EDT 6:48 PM EDT
Nautical Twilight 6:23 AM EDT 7:17 PM EDT
Astronomical Twilight 5:54 AM EDT 7:46 PM EDT
Moon 1:52 AM EDT (10/23) 3:55 PM EDT (10/23)
Length of Visible Light 11h 54m
Length of Day
11h 03m
Waning Crescent, 27% of the Moon is Illuminated
Oct 23
Waning Crescent
Oct 27
New
Nov 4
First Quarter
Nov 12
Full
Nov 19
Last Quarter

Hourly Weather History & Observations

Time (EDT) Temp. Dew Point Humidity Pressure Visibility Wind Dir Wind Speed Gust Speed Precip Events Conditions
12:58 AM 71.1 °F 66.9 °F 87% 29.87 in 10.0 mi West 10.4 mph - N/A   Clear
1:58 AM 69.1 °F 62.1 °F 78% 29.88 in 10.0 mi WNW 9.2 mph - N/A   Clear
2:58 AM 66.9 °F 62.1 °F 84% 29.89 in 10.0 mi WNW 9.2 mph - N/A   Partly Cloudy
3:58 AM 66.0 °F 63.0 °F 90% 29.91 in 10.0 mi NNW 9.2 mph - N/A   Clear
4:58 AM 64.9 °F 60.1 °F 84% 29.94 in 10.0 mi NNW 8.1 mph - N/A   Clear
5:58 AM 64.0 °F 61.0 °F 90% 29.97 in 10.0 mi NW 10.4 mph - N/A   Clear
6:58 AM 62.1 °F 60.1 °F 93% 29.98 in 10.0 mi NNW 8.1 mph - N/A   Clear
7:58 AM 62.1 °F 60.1 °F 93% 30.01 in 10.0 mi NNW 9.2 mph - N/A   Clear
8:58 AM 64.9 °F 61.0 °F 87% 30.05 in 10.0 mi NNW 13.8 mph - N/A   Clear
9:58 AM 66.9 °F 59.0 °F 76% 30.08 in 10.0 mi NNW 15.0 mph - N/A   Clear
11:58 AM 71.1 °F 55.0 °F 57% 30.10 in 10.0 mi North 11.5 mph - N/A   Clear
12:58 PM 72.0 °F 52.0 °F 49% 30.09 in 10.0 mi NE 10.4 mph - N/A   Clear
1:58 PM 72.0 °F 52.0 °F 49% 30.08 in 10.0 mi NE 8.1 mph - N/A   Clear
2:58 PM 73.0 °F 53.1 °F 49% 30.09 in 10.0 mi NE 9.2 mph - N/A   Clear
3:58 PM 73.0 °F 53.1 °F 49% 30.10 in 10.0 mi North 6.9 mph - N/A   Clear
4:58 PM 70.0 °F 55.0 °F 59% 30.11 in 10.0 mi East 9.2 mph - N/A   Partly Cloudy
5:58 PM 66.9 °F 54.0 °F 63% 30.14 in 10.0 mi East 4.6 mph - N/A   Clear
6:58 PM 64.9 °F 54.0 °F 68% 30.17 in 10.0 mi ESE 3.5 mph - N/A   Clear
7:58 PM 60.1 °F 55.0 °F 83% 30.18 in 10.0 mi Calm Calm - N/A   Clear
8:58 PM 59.0 °F 55.0 °F 87% 30.20 in 10.0 mi Calm Calm - N/A   Clear
9:58 PM 57.0 °F 55.0 °F 93% 30.22 in 10.0 mi Calm Calm - N/A   Clear
10:58 PM 55.9 °F 55.0 °F 97% 30.23 in 10.0 mi Calm Calm - N/A   Clear
11:58 PM 55.9 °F 55.0 °F 97% 30.23 in 10.0 mi Calm Calm - N/A   Clear